Regional Weather Roundup
Issued by NWS Newport/Morehead, NC

Current Version | Previous Version | Text Only | Print | Product List | Glossary Off
Versions: 1 2 3 4 5 6 7 8 9 10 11 12 13 14 15 16 17 18 19 20 21 22 23 24 25 26 27 28 29 30 31 32 33 34 35 36 37 38 39 40 41 42 43 44 45 46 47 48 49 50
000 ASUS42 KMHX 231322 RWRMHX WEATHER ROUNDUP FOR EASTERN NORTH CAROLINA NATIONAL WEATHER SERVICE NEWPORT/MOREHEAD CITY NC 900 AM EDT TUE SEP 23 2014 NOTE: "FAIR" INDICATES FEW OR NO CLOUDS BELOW 12,000 FEET WITH NO SIGNIFICANT WEATHER AND/OR OBSTRUCTIONS TO VISIBILITY NCZ015>017-031-032-045>047-102-103-231400- NORTH COAST CITY SKY/WX TMP DP RH WIND PRES REMARKS EDENTON CLOUDY 60 53 76 N7 30.25S ELIZABETH CITY CLOUDY 62 54 74 N13 30.26R KITTY HAWK CLOUDY 68 57 68 NE8G17 30.22S MANTEO CLOUDY 68 58 71 NE12G17 30.23S $$ NCZ045>047-081-094-103-104-231400- CENTRAL COAST CITY SKY/WX TMP DP RH WIND PRES REMARKS FRISCO CLOUDY 69 61 75 NE10G22 30.18S SWANQUARTER N/A 68 N/A N/A NE14 30.18S $$ NCZ095-097-098-100-101-231400- SOUTHERN COAST CITY SKY/WX TMP DP RH WIND PRES REMARKS BEAUFORT CLOUDY 70 60 70 NE12 30.18R CEDAR ISLAND N/A 72 N/A N/A N15G29 30.24S JACKSONVILLE CLOUDY 65 60 84 N9 30.20R NEWPORT NOT AVBL PINEY ISLAND CLOUDY 72 59 63 NE18G25 30.19R WILMINGTON LGT RAIN 66 62 87 N10 30.19R $$ NCZ011>013-027>030-043-044-078>080-089-090>093-098-231400- COASTAL PLAIN CITY SKY/WX TMP DP RH WIND PRES REMARKS AHOSKIE CLOUDY 57 49 75 N6 30.29R CLINTON CLOUDY 62 54 76 NE6 30.26S ELIZABETHTOWN CLOUDY 64 57 80 CALM 30.22R GOLDSBORO CLOUDY 60 55 83 N6 30.24R GREENVILLE CLOUDY 59 52 77 N8 30.26R HAVELOCK CLOUDY 69 58 67 NE16 30.20R KENANSVILLE CLOUDY 61 52 72 N8 30.26R KINSTON CLOUDY 61 54 77 N9 30.25R NEW BERN CLOUDY 66 58 75 NE10 30.22R RICHLANDS CLOUDY 63 55 77 N7 30.23R ROANOKE RAPIDS NOT AVBL ROCKY MOUNT CLOUDY 60 48 64 NE10 30.28R WASHINGTON CLOUDY 60 54 79 N8 30.25R WHITEVILLE DRIZZLE 64 61 90 NE6 30.21R $$ AMZ130-135-150-152-154-156-158-170-250-252-270-ANZ085-086-088-633-658-670-231400- MARINE OBSERVATIONS STATION/POSITION TIME TEMP WIND PRES WAVE SWELL AIR SEA DIR/SP/G HT/PER HT/PER (UTC) (F) (DEG/KT/KT) (MB) (FT/S) (FT/S) CHESAPEAKE LIGHT 1300 65 40/ 13/ 15 1025.6 BUOY 44014 1300 69 76 50/ 12/ 16 1023.4 4/ 6 3/ 6 DUCK 1300 68 74 30/ 16/ 20 1023.1 2E DUCK 1300 N/A 5/ 6 OREGON INLET 1300 69 73 30/ 15/ 19 1023.0 BUOY 44095 1300 74 N/A 5/ 6 20E OREGON INLET NOT AVBL HATTERAS CG NOT AVBL DIAMOND BUOY 1300 75 20/ 19/ 25 1020.9 6/ 7 CAPE LOOKOUT 1300 71 30/ 19/ 25 1021.6 BEAUFORT LAB 1300 70 76 30/ 10/ 15 1021.4 30 SE NEW RIVER 1300 75 82 50/ 23/ 27 1019.7 6/ 6 5 SE WRIGHTSVILL 1300 70 79 50/ 21/ 25 N/A BUOY 41002 1239 78 81 350/ 8/ 8 1019.4 3/ 8 3/ 8 BUOY 41004 1300 76 81 70/ 17/ 19 1018.9 4/ 5 2/10 $$

USA.gov is the U.S. government's official web portal to all federal, state and local government web resources and services.